• In Hungary
  • List of Countries
  • For 7 days
  • Water Temperature
  • Satellite Maps
  • Weather Map
  • News
  • Weather Widgets
  • user-avatar
    Login

    Hourly Weather Bijeljina

    Today, 11 December, Monday

    Time Temperature Precipitation Wind Pressure Humidity
    00:00 +3°C° 0.1 mm 4 mps 749 mmHg 65%
    01:00 +3°C° 0 mm 5 mps 748 mmHg 70%
    02:00 +3°C° 0 mm 5 mps 748 mmHg 70%
    03:00 +4°C° 0 mm 6 mps 748 mmHg 69%
    04:00 +5°C° 0 mm 6 mps 748 mmHg 68%
    05:00 +7°C° 0 mm 6 mps 748 mmHg 67%
    06:00 +7°C° 0 mm 5 mps 747 mmHg 67%
    07:00 +7°C° 0 mm 5 mps 747 mmHg 66%
    08:00 +8°C° 0 mm 4 mps 747 mmHg 65%
    09:00 +10°C° 0 mm 4 mps 747 mmHg 64%
    10:00 +11°C° 0 mm 4 mps 748 mmHg 63%
    11:00 +12°C° 0 mm 4 mps 748 mmHg 62%
    12:00 +13°C° 0 mm 5 mps 747 mmHg 60%
    13:00 +13°C° 0 mm 5 mps 747 mmHg 59%
    14:00 +13°C° 0 mm 5 mps 747 mmHg 60%
    15:00 +12°C° 0 mm 5 mps 747 mmHg 62%
    16:00 +12°C° 0 mm 5 mps 747 mmHg 63%
    17:00 +12°C° 0 mm 5 mps 747 mmHg 63%
    18:00 +12°C° 0 mm 5 mps 748 mmHg 64%
    19:00 +10°C° 0 mm 6 mps 748 mmHg 64%
    20:00 +10°C° 0 mm 5 mps 748 mmHg 66%
    21:00 +10°C° 0 mm 5 mps 748 mmHg 67%
    22:00 +10°C° 0 mm 5 mps 749 mmHg 68%
    23:00 +10°C° 0 mm 5 mps 749 mmHg 69%

    Tomorrow, 12 December, Tuesday

    Time Temperature Precipitation Wind Pressure Humidity
    00:00 +10°C° 0 mm 5 mps 749 mmHg 69%
    01:00 +10°C° 0 mm 5 mps 749 mmHg 70%
    02:00 +10°C° 0 mm 6 mps 749 mmHg 69%
    03:00 +10°C° 0 mm 6 mps 749 mmHg 68%
    04:00 +11°C° 0 mm 6 mps 749 mmHg 67%
    05:00 +11°C° 0 mm 6 mps 750 mmHg 68%
    06:00 +11°C° 0 mm 6 mps 750 mmHg 68%
    07:00 +11°C° 0 mm 6 mps 750 mmHg 68%
    08:00 +13°C° 0 mm 6 mps 751 mmHg 64%
    09:00 +14°C° 0 mm 6 mps 751 mmHg 61%
    10:00 +15°C° 0 mm 6 mps 752 mmHg 57%
    11:00 +16°C° 0 mm 5 mps 752 mmHg 55%
    12:00 +17°C° 0 mm 5 mps 752 mmHg 52%
    13:00 +19°C° 0 mm 4 mps 752 mmHg 50%
    14:00 +17°C° 0 mm 4 mps 752 mmHg 55%
    15:00 +16°C° 0 mm 3 mps 752 mmHg 60%
    16:00 +13°C° 0 mm 3 mps 752 mmHg 65%
    17:00 +13°C° 0 mm 3 mps 753 mmHg 68%
    18:00 +12°C° 0 mm 3 mps 753 mmHg 70%
    19:00 +11°C° 0 mm 3 mps 753 mmHg 72%
    20:00 +11°C° 0 mm 3 mps 753 mmHg 72%
    21:00 +11°C° 0 mm 3 mps 753 mmHg 72%
    22:00 +11°C° 0 mm 4 mps 754 mmHg 73%
    23:00 +11°C° 0 mm 4 mps 754 mmHg 73%

    Day after tomorrow, 13 December, Wednesday

    Time Temperature Precipitation Wind Pressure Humidity
    00:00 +11°C° 0 mm 4 mps 754 mmHg 73%
    01:00 +11°C° 0 mm 4 mps 754 mmHg 73%
    02:00 +10°C° 0.1 mm 4 mps 755 mmHg 75%
    03:00 +8°C° 0.1 mm 4 mps 755 mmHg 78%
    04:00 +7°C° 0.1 mm 4 mps 755 mmHg 80%
    05:00 +6°C° 0.3 mm 4 mps 756 mmHg 81%
    06:00 +5°C° 0.3 mm 4 mps 756 mmHg 82%
    07:00 +4°C° 0.3 mm 4 mps 757 mmHg 83%
    08:00 +4°C° 0.5 mm 3 mps 757 mmHg 82%
    09:00 +4°C° 0.5 mm 3 mps 757 mmHg 82%
    10:00 +4°C° 0.5 mm 3 mps 758 mmHg 82%
    11:00 +5°C° 0.8 mm 2 mps 758 mmHg 82%
    12:00 +5°C° 0.8 mm 2 mps 757 mmHg 82%
    13:00 +5°C° 0.8 mm 2 mps 757 mmHg 81%
    14:00 +5°C° 0.7 mm 2 mps 757 mmHg 83%
    15:00 +5°C° 0.7 mm 1 mps 757 mmHg 84%
    16:00 +5°C° 0.7 mm 1 mps 757 mmHg 85%
    17:00 +5°C° 0.2 mm 1 mps 756 mmHg 86%
    18:00 +5°C° 0.2 mm 1 mps 756 mmHg 87%
    19:00 +5°C° 0.2 mm 1 mps 756 mmHg 87%
    20:00 +4°C° 0 mm 1 mps 756 mmHg 88%
    21:00 +4°C° 0 mm 1 mps 756 mmHg 89%
    22:00 +3°C° 0 mm 1 mps 756 mmHg 89%
    23:00 +3°C° 0 mm 1 mps 756 mmHg 90%

    14 December, Thursday

    Time Temperature Precipitation Wind Pressure Humidity
    00:00 +3°C° 0 mm 1 mps 756 mmHg 90%
    01:00 +3°C° 0 mm 1 mps 755 mmHg 90%
    02:00 +3°C° 0 mm 1 mps 755 mmHg 90%
    03:00 +2°C° 0 mm 2 mps 755 mmHg 89%
    04:00 +2°C° 0 mm 2 mps 754 mmHg 89%
    05:00 +2°C° 0 mm 2 mps 754 mmHg 87%
    06:00 +2°C° 0 mm 2 mps 754 mmHg 86%
    07:00 +3°C° 0 mm 2 mps 754 mmHg 85%
    08:00 +4°C° 0 mm 2 mps 754 mmHg 81%
    09:00 +5°C° 0 mm 2 mps 753 mmHg 78%
    10:00 +7°C° 0 mm 3 mps 753 mmHg 74%
    11:00 +8°C° 0 mm 3 mps 752 mmHg 71%
    12:00 +9°C° 0 mm 3 mps 752 mmHg 68%
    13:00 +10°C° 0 mm 3 mps 751 mmHg 64%
    14:00 +10°C° 0.1 mm 3 mps 751 mmHg 68%
    15:00 +9°C° 0.1 mm 3 mps 751 mmHg 71%
    16:00 +9°C° 0.1 mm 3 mps 750 mmHg 75%
    17:00 +9°C° 0.2 mm 3 mps 750 mmHg 75%
    18:00 +9°C° 0.2 mm 3 mps 750 mmHg 75%
    19:00 +8°C° 0.2 mm 4 mps 749 mmHg 75%
    20:00 +9°C° 0 mm 3 mps 749 mmHg 74%
    21:00 +9°C° 0 mm 3 mps 749 mmHg 73%
    22:00 +9°C° 0 mm 3 mps 748 mmHg 72%
    23:00 +9°C° 0 mm 3 mps 748 mmHg 74%

    15 December, Friday

    Time Temperature Precipitation Wind Pressure Humidity
    00:00 +8°C° 0 mm 3 mps 748 mmHg 76%
    01:00 +8°C° 0 mm 3 mps 748 mmHg 77%
    02:00 +8°C° 0 mm 3 mps 747 mmHg 78%
    03:00 +8°C° 0 mm 3 mps 747 mmHg 79%
    04:00 +8°C° 0 mm 3 mps 747 mmHg 80%
    05:00 +8°C° 0 mm 3 mps 747 mmHg 79%
    06:00 +8°C° 0 mm 3 mps 747 mmHg 78%
    07:00 +8°C° 0 mm 3 mps 747 mmHg 77%
    08:00 +8°C° 0.1 mm 4 mps 747 mmHg 75%
    09:00 +10°C° 0.1 mm 4 mps 746 mmHg 72%
    10:00 +11°C° 0.1 mm 4 mps 746 mmHg 69%
    11:00 +11°C° 0.4 mm 4 mps 745 mmHg 70%
    12:00 +12°C° 0.4 mm 4 mps 744 mmHg 72%
    13:00 +12°C° 0.4 mm 3 mps 744 mmHg 73%
    14:00 +12°C° 0.3 mm 3 mps 743 mmHg 74%
    15:00 +11°C° 0.3 mm 4 mps 742 mmHg 75%
    16:00 +11°C° 0.3 mm 4 mps 742 mmHg 76%
    17:00 +11°C° 0.4 mm 4 mps 741 mmHg 75%
    18:00 +11°C° 0.4 mm 4 mps 741 mmHg 75%
    19:00 +12°C° 0.4 mm 5 mps 741 mmHg 74%
    20:00 +10°C° 0.5 mm 5 mps 741 mmHg 77%
    21:00 +10°C° 0.5 mm 5 mps 742 mmHg 79%
    22:00 +10°C° 0.5 mm 5 mps 743 mmHg 82%
    23:00 +8°C° 0.3 mm 4 mps 743 mmHg 83%

    16 December, Saturday

    Time Temperature Precipitation Wind Pressure Humidity
    00:00 +8°C° 0.3 mm 3 mps 744 mmHg 85%
    01:00 +7°C° 0.3 mm 3 mps 745 mmHg 86%
    02:00 +5°C° 0.4 mm 3 mps 745 mmHg 86%
    03:00 +5°C° 0.4 mm 3 mps 746 mmHg 85%
    04:00 +4°C° 0.4 mm 3 mps 746 mmHg 84%
    05:00 +5°C° 0.3 mm 2 mps 747 mmHg 85%
    06:00 +5°C° 0.3 mm 2 mps 748 mmHg 85%
    07:00 +4°C° 0.3 mm 2 mps 749 mmHg 85%
    08:00 +5°C° 0 mm 2 mps 750 mmHg 81%
    09:00 +5°C° 0 mm 2 mps 751 mmHg 77%
    10:00 +6°C° 0 mm 2 mps 751 mmHg 73%
    11:00 +6°C° 0 mm 2 mps 752 mmHg 70%
    12:00 +6°C° 0 mm 2 mps 752 mmHg 67%
    13:00 +7°C° 0 mm 2 mps 752 mmHg 64%
    14:00 +7°C° 0 mm 1 mps 752 mmHg 67%
    15:00 +7°C° 0 mm 1 mps 753 mmHg 70%
    16:00 +6°C° 0 mm 1 mps 753 mmHg 73%
    17:00 +6°C° 0 mm 1 mps 754 mmHg 74%
    18:00 +5°C° 0 mm 1 mps 754 mmHg 75%
    19:00 +5°C° 0 mm 1 mps 754 mmHg 77%
    20:00 +5°C° 0 mm 1 mps 755 mmHg 77%
    21:00 +5°C° 0 mm 1 mps 755 mmHg 77%
    22:00 +4°C° 0 mm 1 mps 755 mmHg 77%
    23:00 +4°C° 0 mm 1 mps 755 mmHg 77%
    Show more